Redding, CA

4:47 PM PST on November 14, 2019 (GMT -0800)
Redding Municipal

Weather History for KRDD - September, 2019

Change the Weather History Date:

Tuesday, September 17, 2019

  Actual Average Record
Temperature  
Mean Temperature 65 °F -  
Max Temperature 79 °F 90 °F 109 °F (1991)
Min Temperature 51 °F 58 °F 44 °F (1980)
Degree Days  
Heating Degree Days 0    
Cooling Degree Days 0    
Growing Degree Days 15 (Base 50)    
Moisture  
Dew Point 45 °F    
Average Humidity 58    
Maximum Humidity 89    
Minimum Humidity 26    
Precipitation  
Precipitation 0.01 in 0.02 in 3.24 in (1977)
Month to date precipitation 0.13 0.32  
Year to date precipitation 32.40 21.45  
Sea Level Pressure  
Sea Level Pressure 29.96 in    
Wind  
Wind Speed 4 mph (SSE)    
Max Wind Speed 12 mph    
Max Gust Speed -    
Visibility 10 miles    
Events      
T = Trace of Precipitation, MM = Missing Value Source: NWS Daily Summary

Daily Weather History Graph

Daily Weather History Graph

Search for Another Location

Airport or City:

Astronomy

Sep. 17, 2019 Rise Set
Actual Time 6:51 AM PDT 7:14 PM PDT
Civil Twilight 6:24 AM PDT 7:42 PM PDT
Nautical Twilight 5:52 AM PDT 8:14 PM PDT
Astronomical Twilight 5:19 AM PDT 8:47 PM PDT
Moon 9:19 PM PDT (9/17) 10:02 AM PDT (9/17)
Length of Visible Light 13h 17m
Length of Day
12h 23m
Waning Gibbous, 88% of the Moon is Illuminated
Sep 17
Waning Gibbous
Sep 21
Last Quarter
Sep 28
New
Oct 5
First Quarter
Oct 13
Full

Hourly Weather History & Observations

Time (PDT) Temp. Dew Point Humidity Pressure Visibility Wind Dir Wind Speed Gust Speed Precip Events Conditions
12:53 AM 57.0 °F 48.9 °F 74% 29.99 in 10.0 mi North 3.5 mph - N/A   Clear
1:53 AM 55.9 °F 50.0 °F 80% 30.01 in 10.0 mi Calm Calm - N/A   Clear
2:53 AM 53.1 °F 48.9 °F 86% 30.02 in 10.0 mi Calm Calm - N/A   Clear
3:53 AM 52.0 °F 48.9 °F 89% 30.02 in 10.0 mi Calm Calm - N/A   Clear
4:53 AM 52.0 °F 48.0 °F 86% 30.02 in 10.0 mi Calm Calm - N/A   Clear
5:53 AM 52.0 °F 48.0 °F 86% 30.03 in 10.0 mi Calm Calm - N/A   Clear
6:53 AM 52.0 °F 48.0 °F 86% 30.04 in 10.0 mi North 3.5 mph - N/A   Clear
7:53 AM 54.0 °F 48.9 °F 83% 30.06 in 10.0 mi North 3.5 mph - N/A   Clear
8:53 AM 59.0 °F 50.0 °F 72% 30.06 in 10.0 mi North 5.8 mph - N/A   Clear
9:53 AM 64.9 °F 46.9 °F 52% 30.05 in 10.0 mi North 5.8 mph - N/A   Clear
10:53 AM 69.1 °F 46.0 °F 44% 30.03 in 10.0 mi Calm Calm - N/A   Clear
11:53 AM 72.0 °F 43.0 °F 35% 30.01 in 10.0 mi Variable 3.5 mph - N/A   Clear
12:53 PM 73.0 °F 44.1 °F 35% 30.00 in 10.0 mi Variable 3.5 mph - N/A   Clear
1:53 PM 75.9 °F 42.1 °F 30% 29.98 in 10.0 mi South 8.1 mph - N/A   Clear
2:53 PM 77.0 °F 41.0 °F 28% 29.96 in 10.0 mi ESE 6.9 mph - N/A   Mostly Cloudy
3:53 PM 77.0 °F 39.9 °F 26% 29.93 in 10.0 mi SSE 11.5 mph - N/A   Mostly Cloudy
4:53 PM 77.0 °F 43.0 °F 30% 29.91 in 10.0 mi South 10.4 mph - N/A   Overcast
5:53 PM 79.0 °F 43.0 °F 28% 29.89 in 10.0 mi South 10.4 mph - N/A   Mostly Cloudy
6:53 PM 75.9 °F 41.0 °F 29% 29.87 in 10.0 mi SSE 11.5 mph - N/A   Mostly Cloudy
7:53 PM 75.0 °F 43.0 °F 32% 29.87 in 10.0 mi South 11.5 mph - N/A   Overcast
8:53 PM 73.0 °F 44.1 °F 35% 29.86 in 10.0 mi South 8.1 mph - N/A   Overcast
9:53 PM 71.1 °F 45.0 °F 39% 29.86 in 10.0 mi South 5.8 mph - N/A   Mostly Cloudy
10:53 PM 72.0 °F 44.1 °F 37% 29.85 in 10.0 mi SW 8.1 mph - N/A   Overcast
11:53 PM 71.1 °F 43.0 °F 36% 29.83 in 10.0 mi SW 8.1 mph - N/A   Overcast